Location: Santa Fe
(35.6870°N, 105.9370°W)
Time: 06:19:32
(UTC-07:00)

Amateur Radio Satellites - All Passes

Search period start: 28 November 2014 05:49
Search period end: 29 November 2014 05:49
Location: Santa Fe, 35.6870°N, 105.9370°W

Satellite Date Start Highest point End Downlink Frequencies (MHz)
Time Altitude Azimuth
O/OREOS (USA 219) 28 Nov 05:50:11 05:54:25 41° 294° (WNW) 05:58:40 437.305
Cubesat XI-IV 28 Nov 05:51:19 05:56:16 38° 98° (E) 06:01:09 437.490
BEESAT 3 28 Nov 05:51:51 05:54:16 15° 251° (WSW) 05:56:40 437.485
CUBESAT XI-V 28 Nov 05:52:33 05:57:10 57° 75° (ENE) 06:01:48 437.345
PRISM 28 Nov 06:01:54 06:05:44 34° 262° (W) 06:09:36 437.425
AO-7 28 Nov 06:03:49 06:10:27 27° 301° (WNW) 06:17:05 29.400- 29.500
JAS-2 28 Nov 06:07:34 06:14:00 44° 291° (WNW) 06:19:42 435.910
BEESAT 2 28 Nov 06:10:43 06:11:37 11° 253° (WSW) 06:12:31 435.950
CUTE-I 28 Nov 06:31:44 06:37:05 87° 284° (WNW) 06:42:22 437.470
AIST 1 28 Nov 06:32:32 06:36:55 82° 83° (E) 06:41:14
GONETS M04 28 Nov 07:07:30 07:15:22 38° 87° (E) 07:23:16
STRAND 1 28 Nov 07:23:18 07:26:47 18° 266° (W) 07:30:17 437.568
Cubesat XI-IV 28 Nov 07:31:56 07:36:05 24° 293° (WNW) 07:40:13 437.490
CUBESAT XI-V 28 Nov 07:33:06 07:34:55 12° 269° (W) 07:36:44 437.345
HO-68 28 Nov 07:46:02 07:50:53 19° 93° (E) 07:55:41 435.675
COMPASS 1 28 Nov 08:16:23 08:19:02 16° 94° (E) 08:21:41 437.405
CANX-2 28 Nov 08:18:23 08:22:02 26° 96° (E) 08:25:39 2200.000
GOMX 1 28 Nov 08:19:51 08:22:34 17° 95° (E) 08:25:21 467.674
CUTE 1.7 + AOD 2 28 Nov 08:52:12 08:56:28 62° 101° (E) 09:00:43 437.475
BRITE-PL 28 Nov 09:00:12 09:04:22 74° 102° (ESE) 09:08:39 437.365/2234.400
POPSAT HIP 1 28 Nov 09:00:46 09:01:49 11° 65° (ENE) 09:02:51 437.405
TIGRISAT 28 Nov 09:01:50 09:04:32 17° 68° (ENE) 09:07:14 435.000
DOVE 4 28 Nov 09:02:52 09:06:51 39° 99° (E) 09:10:58 437.250
GONETS M04 28 Nov 09:03:50 09:12:00 42° 284° (WNW) 09:20:15
UNISAT 6 28 Nov 09:16:05 09:19:33 25° 70° (ENE) 09:23:01 437.425
CINEMA 3 28 Nov 09:19:51 09:23:50 36° 99° (E) 09:27:56 145.822/145.860
SEEDS 28 Nov 09:21:58 09:26:13 66° 284° (WNW) 09:30:27 437.485
DELFI C3 28 Nov 09:25:55 09:29:47 38° 98° (E) 09:33:38 145.870
UKube-1 28 Nov 09:28:42 09:32:47 40° 99° (E) 09:36:51 .
HO-68 28 Nov 09:31:56 09:39:03 68° 289° (WNW) 09:46:07 435.675
POLYITAN 1 28 Nov 09:33:08 09:36:42 27° 71° (ENE) 09:40:16 437.675
AAUSAT CUBESAT 2 28 Nov 09:33:33 09:37:46 65° 284° (WNW) 09:41:57 437.432
QB50P2 28 Nov 09:34:03 09:37:39 27° 71° (ENE) 09:41:15 145.880/145.840
FUNcube-1 28 Nov 09:36:10 09:39:41 25° 96° (E) 09:43:15 145.935
Oscar 11 28 Nov 09:37:50 09:42:10 65° 101° (E) 09:46:29 145.826/435.025
DUCHIFAT 1 28 Nov 09:38:13 09:41:56 30° 71° (ENE) 09:45:38 145.980
AISAT 28 Nov 09:40:47 09:43:39 17° 94° (E) 09:46:31 437.250
ANTELSAT 28 Nov 09:44:22 09:48:31 54° 74° (ENE) 09:52:41 437.575/2403.000
COMPASS 1 28 Nov 09:50:59 09:54:51 35° 287° (WNW) 09:58:43 437.405
CANX-2 28 Nov 09:54:29 09:57:49 22° 290° (WNW) 10:01:09 2200.000
GOMX 1 28 Nov 09:57:01 10:00:46 33° 287° (WNW) 10:04:38 467.674
NANOSAT C BR1 28 Nov 09:57:36 10:01:43 51° 74° (ENE) 10:05:51 145.865
HUMSAT D 28 Nov 10:01:32 10:05:10 28° 97° (E) 10:08:50 437.325/437.525
BUGSAT 1 28 Nov 10:04:42 10:08:50 51° 74° (ENE) 10:12:56 437.445
DX 1 28 Nov 10:06:45 10:11:04 68° 285° (WNW) 10:15:21 434.975-435.025
QB50P1 28 Nov 10:07:46 10:11:59 70° 76° (ENE) 10:16:13 145.935-145.965
UWE-3 28 Nov 10:08:16 10:12:33 74° 101° (ESE) 10:16:56 435.000/436.395/437.385
CUBEBUG 2 28 Nov 10:13:31 10:17:49 82° 283° (WNW) 10:22:14 437.445
CUTE 1.7 + AOD 2 28 Nov 10:31:24 10:31:50 10° 295° (WNW) 10:32:16 437.475
POPSAT HIP 1 28 Nov 10:33:00 10:37:12 57° 259° (W) 10:41:23 437.405
TIGRISAT 28 Nov 10:37:07 10:41:00 34° 262° (W) 10:44:54 435.000
ZACube-1 28 Nov 10:37:33 10:41:45 58° 285° (WNW) 10:46:02 437.345
DOVE 4 28 Nov 10:41:58 10:44:20 15° 292° (WNW) 10:46:45 437.250
VELOX 1 28 Nov 10:48:05 10:52:31 79° 284° (WNW) 10:56:54 145.980
UNISAT 6 28 Nov 10:52:53 10:56:16 23° 264° (W) 10:59:40 437.425
ESTCUBE 1 28 Nov 10:56:13 11:00:35 45° 99° (E) 11:04:53 437.505/2401.250
CINEMA 3 28 Nov 10:58:05 11:00:46 16° 292° (WNW) 11:03:30 145.822/145.860
DELFI C3 28 Nov 11:02:23 11:04:44 15° 293° (WNW) 11:07:05 145.870
UKube-1 28 Nov 11:06:02 11:08:35 16° 294° (WNW) 11:11:09 .
50 SAT 28 Nov 11:07:39 11:11:36 51° 285° (WNW) 11:15:34 437.505
POLYITAN 1 28 Nov 11:09:20 11:12:36 21° 264° (W) 11:15:52 437.675
QB50P2 28 Nov 11:10:18 11:13:32 21° 265° (W) 11:16:45 145.880/145.840
FUNcube-1 28 Nov 11:12:31 11:15:56 24° 290° (WNW) 11:19:24 145.935
DUCHIFAT 1 28 Nov 11:14:46 11:17:48 19° 265° (W) 11:20:50 145.980
AISAT 28 Nov 11:16:20 11:20:23 36° 288° (WNW) 11:24:24 437.250
Oscar 11 28 Nov 11:17:42 11:17:45 10° 296° (WNW) 11:17:47 145.826/435.025
CUBEBUG 1 28 Nov 11:18:56 11:23:18 81° 102° (ESE) 11:27:37 437.445
HO-68 28 Nov 11:23:40 11:25:26 11° 306° (NW) 11:27:12 435.675
ANTELSAT 28 Nov 11:25:11 11:25:37 10° 268° (W) 11:26:03 437.575/2403.000
YUBILEINY 28 Nov 11:33:12 11:36:44 13° 63° (ENE) 11:40:14 435.215
Oscar 19 28 Nov 11:33:16 11:35:54 14° 64° (ENE) 11:38:32 437.125/150
NANOSAT C BR1 28 Nov 11:36:48 11:37:52 11° 268° (W) 11:38:56 145.865
HUMSAT D 28 Nov 11:37:44 11:40:47 20° 291° (WNW) 11:43:52 437.325/437.525
SO-50 28 Nov 11:40:23 11:45:06 46° 56° (NE) 11:49:48 436.795
BUGSAT 1 28 Nov 11:43:27 11:44:34 11° 268° (W) 11:45:42 437.445
DANDE 28 Nov 11:59:06 12:00:48 15° 94° (E) 12:02:26 436.750
TISAT 1 28 Nov 12:13:41 12:17:54 83° 102° (ESE) 12:22:06 437.305
VERMONT LUNAR 28 Nov 12:30:41 12:34:01 36° 150° (SSE) 12:37:22 437.305
PHONESAT 2.4 28 Nov 12:31:03 12:34:10 26° 147° (SSE) 12:37:18 2401.200-2431.200
ITAMSAT 1 28 Nov 12:31:04 12:34:51 21° 66° (ENE) 12:38:38 435.822/435.867
SPROUT 28 Nov 12:32:03 12:36:18 67° 284° (WNW) 12:40:32 437.525
ESTCUBE 1 28 Nov 12:34:27 12:37:02 15° 294° (WNW) 12:39:37 437.505/2401.250
ITUPSAT 1 28 Nov 12:39:59 12:43:32 20° 95° (E) 12:47:02 437.325
SWISSCUBE 28 Nov 12:49:21 12:53:29 28° 97° (E) 12:57:35 437.505
CUSAT 1 28 Nov 13:03:38 13:05:48 22° 282° (WNW) 13:07:56 437.405
Oscar 19 28 Nov 13:09:38 13:14:40 61° 259° (W) 13:19:45 437.125/150
Gurwin Techsat 1B 28 Nov 13:18:11 13:22:52 33° 70° (ENE) 13:27:35 435.225
HORYU 2 28 Nov 13:18:51 13:20:09 11° 64° (ENE) 13:21:27 437.375
AO-7 28 Nov 13:19:20 13:22:29 13° 50° (NE) 13:25:37 29.400- 29.500
BEESAT 28 Nov 13:19:22 13:24:05 56° 101° (E) 13:28:46 436.000
SO-50 28 Nov 13:21:58 13:25:17 18° 251° (WSW) 13:28:36 436.795
YUBILEINY 28 Nov 13:26:16 13:35:00 78° 83° (E) 13:43:40 435.215
AUBIESAT-1 28 Nov 13:32:44 13:37:40 81° 107° (ESE) 13:42:21 437.475
M-CUBED/EXP-1 PRIME 28 Nov 13:39:58 13:44:55 78° 289° (WNW) 13:49:38 437.505
MaSat-1 28 Nov 13:46:08 13:48:50 30° 110° (ESE) 13:51:20 437.345
STARS 28 Nov 13:52:53 13:55:30 15° 94° (E) 13:58:07 437.465
VERMONT LUNAR 28 Nov 14:08:52 14:12:25 55° 345° (NNW) 14:15:59 437.305
ITAMSAT 1 28 Nov 14:09:04 14:14:00 43° 261° (W) 14:18:57 435.822/435.867
PHONESAT 2.4 28 Nov 14:09:04 14:12:45 70° 341° (NNW) 14:16:28 2401.200-2431.200
ITUPSAT 1 28 Nov 14:17:07 14:21:28 36° 289° (WNW) 14:25:48 437.325
O/OREOS (USA 219) 28 Nov 14:24:26 14:27:39 19° 60° (ENE) 14:30:51 437.305
SWISSCUBE 28 Nov 14:27:17 14:31:13 26° 291° (WNW) 14:35:07 437.505
JAS-2 28 Nov 14:34:49 14:37:14 12° 55° (NE) 14:39:39 435.910
KKS-1 28 Nov 14:37:57 14:42:24 82° 103° (ESE) 14:46:50 437.445
HORYU 2 28 Nov 14:51:54 14:56:15 60° 259° (W) 15:00:39 437.375
Gurwin Techsat 1B 28 Nov 14:58:24 15:02:48 26° 264° (W) 15:07:14 435.225
BEESAT 28 Nov 14:59:01 15:01:25 14° 296° (WNW) 15:03:48 436.000
AO-7 28 Nov 15:05:30 15:13:40 66° 69° (ENE) 15:21:53 29.400- 29.500
RS-15 28 Nov 15:09:20 15:20:09 66° 113° (ESE) 15:30:53 29.354- 29.394
AUBIESAT-1 28 Nov 15:10:22 15:11:53 11° 302° (WNW) 15:13:23 437.475
YUBILEINY 28 Nov 15:25:18 15:30:42 19° 280° (W) 15:36:07 435.215
STARS 28 Nov 15:28:02 15:32:07 39° 288° (WNW) 15:36:12 437.465
VERMONT LUNAR 28 Nov 15:47:52 15:51:15 36° 2° (N) 15:54:39 437.305
PHONESAT 2.4 28 Nov 15:48:22 15:51:52 37° 358° (N) 15:55:21 2401.200-2431.200
O/OREOS (USA 219) 28 Nov 16:03:03 16:07:07 34° 256° (WSW) 16:11:10 437.305
MOZHAYETS 4 28 Nov 16:03:55 16:07:01 18° 93° (E) 16:10:06
JAS-2 28 Nov 16:13:12 16:20:43 64° 72° (ENE) 16:28:28 435.910
CUTE-I 28 Nov 16:14:10 16:16:40 14° 62° (ENE) 16:19:10 437.470
AO-7 28 Nov 17:00:39 17:06:55 24° 265° (W) 17:13:15 29.400- 29.500
Cubesat XI-IV 28 Nov 17:10:26 17:15:33 48° 72° (ENE) 17:20:42 437.490
GONETS M04 28 Nov 17:22:58 17:27:43 15° 64° (ENE) 17:32:24
RS-15 28 Nov 17:23:29 17:33:10 35° 315° (NW) 17:42:56 29.354- 29.394
VERMONT LUNAR 28 Nov 17:26:25 17:30:02 69° 18° (NNE) 17:33:39 437.305
PHONESAT 2.4 28 Nov 17:27:21 17:31:02 56° 15° (NNE) 17:34:41 2401.200-2431.200
PCSat 28 Nov 17:32:15 17:35:30 16° 104° (ESE) 17:38:45 145.827
MOZHAYETS 4 28 Nov 17:40:02 17:44:21 39° 288° (WNW) 17:48:39
PRISM 28 Nov 17:47:54 17:51:53 40° 99° (E) 17:55:50 437.425
CUTE-I 28 Nov 17:50:44 17:56:04 71° 258° (WSW) 18:01:26 437.470
CUBESAT XI-V 28 Nov 17:53:37 17:56:46 18° 93° (E) 17:59:54 437.345
STRAND 1 28 Nov 17:57:03 18:00:38 19° 94° (E) 18:04:12 437.568
JAS-2 28 Nov 18:00:09 18:06:05 24° 268° (W) 18:12:13 435.910
BEESAT 3 28 Nov 18:06:14 18:08:43 16° 109° (ESE) 18:11:13 437.485
HO-68 28 Nov 18:15:27 18:17:21 11° 54° (NE) 18:19:14 435.675
BEESAT 2 28 Nov 18:23:22 18:26:34 22° 111° (ESE) 18:29:49 435.950
Cubesat XI-IV 28 Nov 18:52:13 18:55:51 18° 266° (W) 18:59:29 437.490
AIST 1 28 Nov 18:58:56 19:03:13 56° 94° (E) 19:07:33
VERMONT LUNAR 28 Nov 19:05:15 19:08:19 26° 213° (SSW) 19:11:22 437.305
PHONESAT 2.4 28 Nov 19:06:17 19:09:45 37° 210° (SSW) 19:13:12 2401.200-2431.200
CANX-2 28 Nov 19:10:23 19:12:34 14° 67° (ENE) 19:14:45 2200.000
AIST 2 28 Nov 19:10:37 19:14:29 37° 113° (ESE) 19:18:25 435.215
PCSat 28 Nov 19:13:04 19:18:22 57° 299° (WNW) 19:23:43 145.827
GONETS M04 28 Nov 19:16:56 19:25:49 86° 84° (E) 19:34:34
PRISM 28 Nov 19:24:41 19:27:04 15° 294° (WNW) 19:29:26 437.425
GOMX 1 28 Nov 19:26:10 19:28:50 15° 68° (ENE) 19:31:25 467.674
CUBESAT XI-V 28 Nov 19:30:02 19:34:19 37° 288° (WNW) 19:38:33 437.345
STRAND 1 28 Nov 19:35:10 19:39:57 42° 289° (WNW) 19:44:43 437.568
BEESAT 3 28 Nov 19:42:46 19:46:35 38° 304° (NW) 19:50:29 437.485
CUTE 1.7 + AOD 2 28 Nov 19:42:54 19:46:35 30° 72° (ENE) 19:50:17 437.475
RS-15 28 Nov 19:45:46 19:50:25 13° 349° (N) 19:55:07 29.354- 29.394
HO-68 28 Nov 19:56:37 20:03:44 69° 71° (ENE) 20:10:52 435.675
BEESAT 2 28 Nov 20:01:08 20:04:42 28° 307° (NW) 20:08:19 435.950
DOVE 4 28 Nov 20:06:20 20:10:18 30° 72° (ENE) 20:14:06 437.250
BRITE-PL 28 Nov 20:07:57 20:12:53 64° 76° (ENE) 20:17:27 437.365/2234.400
SEEDS 28 Nov 20:11:28 20:15:34 58° 75° (ENE) 20:19:42 437.485
DELFI C3 28 Nov 20:13:06 20:15:47 17° 68° (ENE) 20:18:28 145.870
CINEMA 3 28 Nov 20:19:49 20:23:20 24° 71° (ENE) 20:26:46 145.822/145.860
UKube-1 28 Nov 20:21:35 20:25:07 25° 69° (ENE) 20:28:40 .
AAUSAT CUBESAT 2 28 Nov 20:22:01 20:26:04 56° 75° (ENE) 20:30:10 437.432
Oscar 11 28 Nov 20:30:06 20:33:59 34° 72° (ENE) 20:37:53 145.826/435.025
FUNcube-1 28 Nov 20:31:10 20:33:20 14° 67° (ENE) 20:35:30 145.935
ISS 28 Nov 20:36:17 20:37:26 11° 127° (SE) 20:38:35 145.825
AISAT 28 Nov 20:37:56 20:39:37 12° 65° (ENE) 20:41:18 437.250
COMPASS 1 28 Nov 20:39:26 20:43:35 75° 258° (WSW) 20:47:46 437.405
AIST 1 28 Nov 20:40:22 20:41:14 11° 289° (WNW) 20:42:06
CANX-2 28 Nov 20:44:07 20:48:07 42° 261° (W) 20:52:08 2200.000
AIST 2 28 Nov 20:50:07 20:53:13 20° 310° (NW) 20:56:22 435.215
HUMSAT D 28 Nov 20:52:41 20:54:58 15° 67° (ENE) 20:57:15 437.325/437.525
DX 1 28 Nov 20:59:22 21:03:44 72° 75° (ENE) 21:08:06 434.975-435.025
GOMX 1 28 Nov 21:02:06 21:06:39 44° 260° (W) 21:10:57 467.674
UWE-3 28 Nov 21:03:14 21:07:11 40° 73° (ENE) 21:11:05 435.000/436.395/437.385
CUBEBUG 2 28 Nov 21:09:23 21:13:33 57° 75° (ENE) 21:17:39 437.445
GONETS M04 28 Nov 21:16:33 21:21:21 16° 282° (WNW) 21:26:08
CUTE 1.7 + AOD 2 28 Nov 21:19:36 21:22:32 18° 266° (W) 21:25:29 437.475
ZACube-1 28 Nov 21:30:57 21:35:08 75° 76° (ENE) 21:39:18 437.345
ANTELSAT 28 Nov 21:40:41 21:43:17 15° 94° (E) 21:45:55 437.575/2403.000
VELOX 1 28 Nov 21:43:01 21:47:26 65° 75° (ENE) 21:51:52 145.980
DOVE 4 28 Nov 21:44:41 21:48:04 20° 264° (W) 21:51:20 437.250
HO-68 28 Nov 21:47:04 21:51:54 19° 267° (W) 21:56:47 435.675
DELFI C3 28 Nov 21:47:12 21:50:49 31° 263° (W) 21:54:28 145.870
NANOSAT C BR1 28 Nov 21:49:01 21:49:41 10° 92° (E) 21:50:21 145.865
BRITE-PL 28 Nov 21:50:23 21:51:37 11° 267° (W) 21:52:49 437.365/2234.400
ESTCUBE 1 28 Nov 21:53:30 21:57:27 30° 71° (ENE) 22:01:25 437.505/2401.250
50 SAT 28 Nov 21:53:31 21:57:30 66° 76° (ENE) 22:01:30 437.505
CINEMA 3 28 Nov 21:56:58 22:00:27 23° 264° (W) 22:03:53 145.822/145.860
UKube-1 28 Nov 21:57:38 22:01:10 24° 264° (W) 22:04:45 .
QB50P1 28 Nov 21:57:54 22:00:09 14° 93° (E) 22:02:24 145.935-145.965
CUSAT 1 28 Nov 22:01:17 22:03:38 13° 74° (ENE) 22:06:13 437.405
RS-15 28 Nov 22:02:20 22:09:35 19° 27° (NNE) 22:16:57 29.354- 29.394
FUNcube-1 28 Nov 22:05:23 22:09:21 40° 261° (W) 22:13:17 145.935
Oscar 11 28 Nov 22:07:25 22:10:13 17° 266° (W) 22:13:02 145.826/435.025
JUGNU 28 Nov 22:07:46 22:10:37 14° 171° (S) 22:13:28 437.505
ISS 28 Nov 22:10:28 22:13:42 55° 321° (NW) 22:16:56 145.825
AISAT 28 Nov 22:11:19 22:15:44 58° 259° (W) 22:20:09 437.250
CUBEBUG 1 28 Nov 22:12:23 22:16:38 46° 73° (ENE) 22:20:53 437.445
POPSAT HIP 1 28 Nov 22:21:58 22:25:36 27° 97° (E) 22:29:13 437.405
HUMSAT D 28 Nov 22:26:36 22:30:27 37° 262° (W) 22:34:17 437.325/437.525
TIGRISAT 28 Nov 22:31:10 22:35:35 56° 100° (E) 22:40:04 435.000
DANDE 28 Nov 22:39:28 22:43:41 24° 78° (ENE) 22:48:53 436.750
UWE-3 28 Nov 22:41:48 22:43:53 13° 267° (W) 22:45:57 435.000/436.395/437.385
UNISAT 6 28 Nov 22:46:35 22:51:06 87° 103° (ESE) 22:55:42 437.425
POLYITAN 1 28 Nov 22:57:03 23:01:18 78° 102° (ESE) 23:05:32 437.675
QB50P2 28 Nov 22:57:46 23:02:01 79° 102° (ESE) 23:06:14 145.880/145.840
DUCHIFAT 1 28 Nov 23:01:39 23:05:53 86° 103° (ESE) 23:10:05 145.980
TISAT 1 28 Nov 23:03:35 23:07:36 42° 73° (ENE) 23:11:37 437.305
ANTELSAT 28 Nov 23:15:58 23:20:14 43° 287° (WNW) 23:24:34 437.575/2403.000
NANOSAT C BR1 28 Nov 23:21:44 23:25:51 52° 286° (WNW) 23:29:56 145.865
SPROUT 28 Nov 23:23:19 23:27:34 63° 75° (ENE) 23:31:51 437.525
BUGSAT 1 28 Nov 23:25:47 23:29:46 57° 285° (WNW) 23:33:42 437.445
MaSat-1 28 Nov 23:26:47 23:28:29 18° 62° (ENE) 23:30:14 437.345
ESTCUBE 1 28 Nov 23:30:48 23:34:18 22° 265° (W) 23:37:49 437.505/2401.250
QB50P1 28 Nov 23:32:15 23:36:11 39° 287° (WNW) 23:40:07 145.935-145.965
CUSAT 1 28 Nov 23:41:26 23:46:44 78° 263° (W) 23:53:46 437.405
ITUPSAT 1 28 Nov 23:44:45 23:47:59 18° 66° (ENE) 23:51:12 437.325
ISS 28 Nov 23:50:37 23:50:56 10° 338° (NNW) 23:51:15 145.825
CUBEBUG 1 28 Nov 23:51:03 23:53:13 13° 267° (W) 23:55:23 437.445
SWISSCUBE 28 Nov 23:53:39 23:57:30 25° 68° (ENE) 00:01:22 437.505
JUGNU 28 Nov 23:55:16 23:58:52 17° 181° (S) 00:02:29 437.505
POPSAT HIP 1 28 Nov 23:58:12 00:01:19 21° 291° (WNW) 00:04:27 437.405
TIGRISAT 29 Nov 00:10:00 00:11:51 12° 294° (WNW) 00:13:43 435.000
SRMSAT 29 Nov 00:12:16 00:15:45 16° 174° (S) 00:19:14 437.500
RS-15 29 Nov 00:13:52 00:24:59 60° 55° (NE) 00:36:33 29.354- 29.394
AUBIESAT-1 29 Nov 00:19:25 00:23:28 66° 70° (ENE) 00:27:55 437.475
DANDE 29 Nov 00:22:12 00:27:02 39° 264° (W) 00:33:20 436.750
BEESAT 29 Nov 00:23:09 00:27:43 46° 73° (ENE) 00:32:18 436.000
M-CUBED/EXP-1 PRIME 29 Nov 00:27:00 00:31:04 90° 77° (ENE) 00:35:34 437.505
YUBILEINY 29 Nov 00:31:08 00:36:06 17° 79° (E) 00:41:04 435.215
TISAT 1 29 Nov 00:41:27 00:43:36 14° 267° (W) 00:45:46 437.305
STARS 29 Nov 00:49:54 00:50:30 10° 64° (ENE) 00:51:06 437.465
ITUPSAT 1 29 Nov 01:20:57 01:25:30 42° 261° (W) 01:30:06 437.325
Oscar 19 29 Nov 01:24:04 01:29:12 60° 101° (E) 01:34:18 437.125/150
SWISSCUBE 29 Nov 01:31:00 01:35:12 30° 263° (W) 01:39:26 437.505
KKS-1 29 Nov 01:33:25 01:37:43 51° 74° (ENE) 01:42:02 437.445
Gurwin Techsat 1B 29 Nov 01:38:17 01:41:34 17° 93° (E) 01:44:51 435.225
JUGNU 29 Nov 01:44:36 01:47:07 13° 191° (S) 01:49:39 437.505
SO-50 29 Nov 01:53:02 01:56:50 28° 112° (ESE) 02:00:43 436.795
SRMSAT 29 Nov 02:00:35 02:04:11 16° 184° (S) 02:07:47 437.500
BEESAT 29 Nov 02:02:55 02:05:45 16° 267° (W) 02:08:36 436.000
STARS 29 Nov 02:22:02 02:26:24 65° 259° (WSW) 02:30:47 437.465
YUBILEINY 29 Nov 02:22:52 02:31:41 85° 276° (W) 02:40:31 435.215
ITAMSAT 1 29 Nov 02:24:36 02:29:48 86° 103° (ESE) 02:34:57 435.822/435.867
RS-15 29 Nov 02:26:54 02:36:49 37° 254° (WSW) 02:47:09 29.354- 29.394
HORYU 2 29 Nov 02:46:41 02:50:43 32° 98° (E) 02:54:45 437.375
MOZHAYETS 4 29 Nov 03:04:44 03:06:38 13° 65° (ENE) 03:08:33
Oscar 19 29 Nov 03:05:09 03:07:59 15° 296° (WNW) 03:10:49 437.125/150
AO-7 29 Nov 03:11:24 03:18:01 25° 96° (E) 03:24:34 29.400- 29.500
KKS-1 29 Nov 03:12:53 03:14:37 12° 268° (W) 03:16:21 437.445
Gurwin Techsat 1B 29 Nov 03:16:39 03:21:48 52° 287° (WNW) 03:26:55 435.225
SO-50 29 Nov 03:33:24 03:37:17 28° 308° (NW) 03:41:16 436.795
AIST 2 29 Nov 03:36:43 03:38:43 13° 46° (NE) 03:40:43 435.215
SRMSAT 29 Nov 03:51:21 03:52:35 11° 194° (SSW) 03:53:49 437.500
PCSat 29 Nov 04:03:49 04:09:11 61° 61° (ENE) 04:14:31 145.827
BEESAT 3 29 Nov 04:05:09 04:09:14 51° 58° (ENE) 04:13:16 437.485
ITAMSAT 1 29 Nov 04:07:52 04:08:30 10° 299° (WNW) 04:09:07 435.822/435.867
BEESAT 2 29 Nov 04:23:25 04:27:38 75° 60° (ENE) 04:31:46 435.950
HORYU 2 29 Nov 04:23:51 04:27:10 21° 292° (WNW) 04:30:29 437.375
YUBILEINY 29 Nov 04:25:16 04:29:46 15° 296° (WNW) 04:34:18 435.215
O/OREOS (USA 219) 29 Nov 04:33:06 04:37:12 36° 104° (ESE) 04:41:17 437.305
PRISM 29 Nov 04:36:41 04:39:53 21° 69° (ENE) 04:43:06 437.425
MOZHAYETS 4 29 Nov 04:38:48 04:43:19 58° 260° (W) 04:47:53
ISS 29 Nov 04:41:18 04:44:27 43° 38° (NE) 04:47:37 145.825
CUBESAT XI-V 29 Nov 04:55:27 04:57:49 14° 65° (ENE) 05:00:12 437.345
AO-7 29 Nov 05:02:58 05:11:11 63° 292° (WNW) 05:19:23 29.400- 29.500
STRAND 1 29 Nov 05:10:17 05:14:08 22° 67° (ENE) 05:17:59 437.568
AIST 1 29 Nov 05:12:12 05:13:08 11° 71° (ENE) 05:14:05
JAS-2 29 Nov 05:12:26 05:19:14 70° 101° (E) 05:25:09 435.910
AIST 2 29 Nov 05:13:31 05:17:47 65° 243° (WSW) 05:21:57 435.215
Cubesat XI-IV 29 Nov 05:31:22 05:35:37 24° 95° (E) 05:39:51 437.490
BEESAT 3 29 Nov 05:45:26 05:46:57 12° 253° (WSW) 05:48:29 437.485
